Location: Newark
(50.8547°N, 2.7256°E)
Time: 22:57:56
(UTC+00:00)

Envisat - Pass Details

Date: 27 January 2020
Orbit: 764 x 766 km, 98.1° (Epoch: 19 February)

Event Time Altitude Azimuth Distance (km) Brightness Sun altitude
Rises 06:34:57 0° 15° (NNE) 3,245 6.2 -9.2°
Reaches altitude 10° 06:37:16 10° 17° (NNE) 2,314 5.5 -8.9°
Maximum altitude 06:42:23 76° 103° (ESE) 794 3.3 -8.1°
Drops below altitude 10° 06:47:27 10° 190° (S) 2,297 5.6 -7.4°
Sets 06:49:45 0° 192° (SSW) 3,218 6.4 -7.0°
